Content
SEND FEEDBACK

Daily
Averages
Monthly
Summary
United States of America

BANTRY, NORTH DAKOTA


Home > North America > United States > North Dakota
Elevation: 1460 feet     Latitude: 48 30N     Longitude: 100 36W

WEATHER
 
SELECT A DAY
Number of Records: 86,669;   Date Range: 11/13/98 - 9/18/14
 
SHARE

PRINT THIS DATA

[ ← Previous Day ]
WEATHER ALMANAC - JANUARY 31, 2013
[ Next Day → ]
[ °C ]   °F
Weather ElementAverageHighLow
Temperature-18.8 °F-14.8 °F (2:35 am)-25.6 °F (10:35 pm)
Dewpoint-25.2 °F-20.2 °F (2:35 am)-29.2 °F (9:15 pm)
Humidity72.5 %84 % (2:55 am)63 % (11:35 am)
Barometer30.18 in30.26 in (11:15 am)30.00 in (12:35 am)
Wind Speed17.2 mph24.2 mph (6:35 am)
Wind Gust29.9 mph (6:35 am)
Weather ElementAverage
Visibility8 mi
Wind DirectionWNW (299.1 °)

Weather ElementTotal
Precipitation0.02 in
Heating Degree Days85.2 (Base 65)
Averaged from 68 records on January 31, 2013
WEATHER CONDITIONS BREAKOUT
WIND DIRECTION BREAKOUT
WEATHER BY HOUR - JANUARY 31, 2013
[ °C ]   °F
Local TimeTemperatureDewpointHumidityBarometerVisibilityWind DirectionWind SpeedGust SpeedPrecipitationEventsConditions
12:35 AM-18.4 °F-23.8 °F76 %30.00 in3.0 miNW (310°)20.7 mphSnowLight Snow
12:55 AM-18.4 °F-23.8 °F76 %30.01 in4.0 miNW (320°)19.6 mph24.2 mphSnowLight Snow
1:15 AM-16.6 °F-22.0 °F76 %30.01 in2.0 miNW (310°)19.6 mphSnowLight Snow
1:35 AM-16.6 °F-22.0 °F76 %30.02 in3.0 miNW (310°)18.4 mph0.01 inSnowLight Snow
1:55 AM-16.6 °F-22.0 °F76 %30.03 in5.0 miWNW (300°)18.4 mph0.01 inHaze
2:15 AM-16.6 °F-22.0 °F76 %30.04 in3.0 miNW (310°)20.7 mph26.5 mphHaze
2:35 AM-14.8 °F-20.2 °F77 %30.05 in2.5 miNW (310°)20.7 mphSnowLight Snow
2:55 AM-16.6 °F-20.2 °F84 %30.06 in2.5 miNW (310°)20.7 mph24.2 mphSnowLight Snow
3:15 AM-16.6 °F-22.0 °F76 %30.07 in2.5 miNW (310°)20.7 mphHaze
3:35 AM-16.6 °F-22.0 °F76 %30.07 in2.5 miNW (310°)21.9 mph26.5 mphHaze
3:55 AM-16.6 °F-22.0 °F76 %30.08 in4.0 miNW (310°)19.6 mphHaze
4:15 AM-16.6 °F-22.0 °F76 %30.09 in9.0 miNW (310°)17.3 mphOvercast
4:35 AM-16.6 °F-22.0 °F76 %30.10 in4.0 miNW (310°)19.6 mphHaze
4:55 AM-16.6 °F-22.0 °F76 %30.11 in5.0 miNW (310°)19.6 mph25.3 mphHaze
5:15 AM-16.6 °F-22.0 °F76 %30.12 in4.0 miNW (310°)20.7 mphHaze
5:35 AM-16.6 °F-22.0 °F76 %30.13 in4.0 miNW (310°)20.7 mph25.3 mphHaze
5:55 AM-16.6 °F-23.8 °F70 %30.13 in5.0 miNW (310°)23.0 mph26.5 mphHaze
6:15 AM-18.4 °F-23.8 °F76 %30.14 in2.0 miNW (310°)20.7 mphRainLight Rain
6:35 AM-18.4 °F-25.6 °F70 %30.15 in2.0 miNW (310°)24.2 mph29.9 mphSnowLight Snow
6:55 AM-18.4 °F-25.6 °F70 %30.16 in7.0 miNW (310°)23.0 mph27.6 mph
7:15 AM-20.2 °F-25.6 °F76 %30.17 in10.0 miNW (310°)21.9 mph25.3 mphClear
7:35 AM-20.2 °F-27.4 °F69 %30.18 in10.0 miNW (310°)23.0 mph
7:55 AM-20.2 °F-27.4 °F69 %30.19 in10.0 miNW (310°)17.3 mphScattered Clouds
8:15 AM-22.0 °F-27.4 °F76 %30.20 in9.0 miNW (310°)18.4 mphPartly Cloudy
8:35 AM-22.0 °F-27.4 °F76 %30.21 in5.0 miNW (310°)19.6 mph24.2 mphHaze
8:55 AM-22.0 °F-27.4 °F76 %30.21 in6.0 miNW (310°)20.7 mphHaze
9:15 AM-20.2 °F-27.4 °F69 %30.22 in10.0 miNW (310°)21.9 mph
9:35 AM-20.2 °F-27.4 °F69 %30.23 in7.0 miNW (310°)20.7 mph27.6 mphClear
9:55 AM-20.2 °F-27.4 °F69 %30.23 in10.0 miNW (310°)23.0 mph27.6 mph
10:15 AM-20.2 °F-27.4 °F69 %30.24 in10.0 miNW (310°)24.2 mph
10:35 AM-20.2 °F-27.4 °F69 %30.24 in10.0 miNW (310°)23.0 mph27.6 mph
10:55 AM-20.2 °F-27.4 °F69 %30.25 in10.0 miNW (310°)21.9 mph27.6 mphPartly Cloudy
11:15 AM-20.2 °F-27.4 °F69 %30.26 in10.0 miNW (310°)23.0 mph27.6 mphPartly Cloudy
11:35 AM-18.4 °F-27.4 °F63 %30.26 in10.0 miNW (310°)20.7 mph27.6 mphClear
11:55 AM-18.4 °F-25.6 °F70 %30.26 in9.0 miWNW (300°)23.0 mphPartly Cloudy
12:15 PM-18.4 °F-25.6 °F70 %30.25 in10.0 miWNW (300°)23.0 mph27.6 mphPartly Cloudy
12:35 PM-18.4 °F-25.6 °F70 %30.25 in10.0 miNW (310°)21.9 mphPartly Cloudy
12:55 PM-18.4 °F-25.6 °F70 %30.25 in10.0 miWNW (300°)23.0 mphPartly Cloudy
1:15 PM-16.6 °F-25.6 °F64 %30.25 in10.0 miWNW (300°)19.6 mphClear
1:35 PM-16.6 °F-25.6 °F64 %30.25 in10.0 miWNW (300°)21.9 mph26.5 mphClear
1:55 PM-16.6 °F-25.6 °F64 %30.25 in10.0 miNW (310°)19.6 mphClear
2:15 PM-16.6 °F-23.8 °F70 %30.24 in10.0 miNW (320°)19.6 mphClear
2:35 PM-16.6 °F-23.8 °F70 %30.24 in10.0 miNW (310°)18.4 mphClear
2:55 PM-16.6 °F-23.8 °F70 %30.24 in10.0 miNW (310°)16.1 mphClear
3:15 PM-16.6 °F-23.8 °F70 %30.24 in10.0 miNW (310°)16.1 mphClear
3:35 PM-16.6 °F-23.8 °F70 %30.24 in10.0 miWNW (300°)15.0 mphClear
3:55 PM-14.8 °F-22.0 °F70 %30.24 in10.0 miWest (280°)17.3 mphClear
4:15 PM-16.6 °F-22.0 °F76 %30.24 in10.0 miWNW (290°)16.1 mphClear
4:35 PM-16.6 °F-22.0 °F76 %30.23 in10.0 miWNW (290°)16.1 mphClear
4:55 PM-16.6 °F-23.8 °F70 %30.24 in10.0 miNW (310°)11.5 mphClear
5:15 PM-16.6 °F-23.8 °F70 %30.24 in10.0 miWNW (290°)6.9 mphClear
5:35 PM-16.6 °F-25.6 °F64 %30.23 in10.0 miWNW (290°)9.2 mphClear
5:55 PM-16.6 °F-23.8 °F70 %30.24 in10.0 miWest (280°)15.0 mphClear
6:15 PM-18.4 °F-23.8 °F76 %30.24 in10.0 miWest (280°)13.8 mphClear
6:35 PM-18.4 °F-25.6 °F70 %30.24 in10.0 miWest (280°)11.5 mphClear
7:15 PM-20.2 °F-27.4 °F69 %30.23 in10.0 miWest (280°)9.2 mphClear
7:35 PM-20.2 °F-27.4 °F69 %30.23 in10.0 miWest (270°)9.2 mphClear
8:15 PM-20.2 °F-27.4 °F69 %30.22 in10.0 miWest (270°)8.1 mphClear
8:35 PM-20.2 °F-27.4 °F69 %30.21 in10.0 miWest (280°)11.5 mphClear
8:55 PM-22.0 °F-27.4 °F76 %30.21 in10.0 miWest (280°)9.2 mphClear
9:15 PM-22.0 °F-29.2 °F69 %30.20 in10.0 miWNW (290°)6.9 mphScattered Clouds
9:35 PM-23.8 °F-29.2 °F76 %30.20 in10.0 miWest (280°)5.8 mphPartly Cloudy
9:55 PM-22.0 °F-29.2 °F69 %30.20 in10.0 miWest (270°)8.1 mphClear
10:15 PM-23.8 °F-29.2 °F76 %30.19 in10.0 miWest (280°)9.2 mphClear
10:35 PM-25.6 °F-29.2 °F83 %30.18 in10.0 miWest (270°)9.2 mphClear
10:55 PM-25.6 °F-29.2 °F83 %30.18 in10.0 miWest (270°)9.2 mphClear
11:15 PM-25.6 °F-29.2 °F83 %30.17 in10.0 miWSW (250°)5.8 mphClear
11:35 PM-23.8 °F-29.2 °F76 %30.17 in10.0 miWSW (250°)4.6 mphClear
Hourly data recorded from KRUG, located miles away from Bantry, North Dakota







STORIES FROM OUR PARTNERS